Time,TemperatureF,DewpointF,PressureIn,WindDirection,WindDirectionDegrees,WindSpeedMPH,WindSpeedGustMPH,Humidity,HourlyPrecipIn,Conditions,Clouds,dailyrainin,SoftwareType,DateUTC
2013-05-26 00:03:00,54.0,37.0,30.20,ESE,103,0.0,0.0,52,0.00,,,0.00,,2013-05-26 04:03:00,
2013-05-26 00:12:00,54.0,37.0,30.20,ESE,103,0.0,0.0,52,0.00,,,0.00,,2013-05-26 04:12:00,
2013-05-26 00:23:00,54.0,37.0,30.20,ESE,103,0.0,0.0,52,0.00,,,0.00,,2013-05-26 04:23:00,
2013-05-26 00:33:00,54.0,43.0,30.20,ESE,103,0.0,0.0,65,0.00,,,0.00,,2013-05-26 04:33:00,
2013-05-26 00:42:00,54.0,43.0,30.20,ESE,103,0.0,0.0,65,0.00,,,0.00,,2013-05-26 04:42:00,
2013-05-26 00:52:00,54.0,43.0,30.20,ESE,103,0.0,0.0,65,0.00,,,0.00,,2013-05-26 04:52:00,
2013-05-26 01:02:00,52.0,39.0,30.21,ESE,103,0.0,0.0,62,0.00,,,0.00,,2013-05-26 05:02:00,
2013-05-26 01:12:00,52.0,39.0,30.21,ESE,103,0.0,0.0,62,0.00,,,0.00,,2013-05-26 05:12:00,
2013-05-26 01:22:00,52.0,39.0,30.21,ESE,103,0.0,0.0,62,0.00,,,0.00,,2013-05-26 05:22:00,
2013-05-26 01:32:00,52.0,42.0,30.19,ESE,103,0.0,0.0,68,0.00,,,0.00,,2013-05-26 05:32:00,
2013-05-26 01:42:00,52.0,42.0,30.19,ESE,103,0.0,0.0,68,0.00,,,0.00,,2013-05-26 05:42:00,
2013-05-26 01:52:00,52.0,42.0,30.19,ESE,103,0.0,0.0,68,0.00,,,0.00,,2013-05-26 05:52:00,
2013-05-26 02:01:00,51.0,42.0,30.20,ESE,103,0.0,0.0,71,0.00,,,0.00,,2013-05-26 06:01:00,
2013-05-26 02:12:00,51.0,42.0,30.20,ESE,103,0.0,0.0,71,0.00,,,0.00,,2013-05-26 06:12:00,
2013-05-26 02:22:00,51.0,42.0,30.20,ESE,103,0.0,0.0,71,0.00,,,0.00,,2013-05-26 06:22:00,
2013-05-26 02:32:00,51.0,40.0,30.18,ESE,103,0.0,0.0,67,0.00,,,0.00,,2013-05-26 06:32:00,
2013-05-26 02:42:00,51.0,40.0,30.18,ESE,103,0.0,0.0,67,0.00,,,0.00,,2013-05-26 06:42:00,
2013-05-26 02:52:00,51.0,40.0,30.18,ESE,103,0.0,0.0,67,0.00,,,0.00,,2013-05-26 06:52:00,
2013-05-26 03:02:00,50.0,42.0,30.18,ESE,103,0.0,0.0,73,0.00,,,0.00,,2013-05-26 07:02:00,
2013-05-26 03:11:00,50.0,42.0,30.18,ESE,103,0.0,0.0,73,0.00,,,0.00,,2013-05-26 07:11:00,
2013-05-26 03:22:00,50.0,42.0,30.18,ESE,103,0.0,0.0,73,0.00,,,0.00,,2013-05-26 07:22:00,
2013-05-26 03:32:00,50.0,43.0,30.19,ESE,103,0.0,0.0,77,0.00,,,0.00,,2013-05-26 07:32:00,
2013-05-26 03:42:00,50.0,43.0,30.19,ESE,103,0.0,0.0,77,0.00,,,0.00,,2013-05-26 07:42:00,
2013-05-26 03:52:00,50.0,43.0,30.19,ESE,103,0.0,0.0,77,0.00,,,0.00,,2013-05-26 07:52:00,
2013-05-26 04:01:00,49.0,43.0,30.18,ESE,103,0.0,0.0,80,0.00,,,0.00,,2013-05-26 08:01:00,
2013-05-26 04:12:00,49.0,43.0,30.18,ESE,103,0.0,0.0,80,0.00,,,0.00,,2013-05-26 08:12:00,
2013-05-26 04:21:00,49.0,43.0,30.18,ESE,103,0.0,0.0,80,0.00,,,0.00,,2013-05-26 08:21:00,
2013-05-26 04:32:00,49.0,44.0,30.18,ESE,103,0.0,0.0,82,0.00,,,0.00,,2013-05-26 08:32:00,
2013-05-26 04:42:00,49.0,44.0,30.18,ESE,103,0.0,0.0,82,0.00,,,0.00,,2013-05-26 08:42:00,
2013-05-26 04:53:00,49.0,44.0,30.18,ESE,103,0.0,0.0,82,0.00,,,0.00,,2013-05-26 08:53:00,
2013-05-26 05:01:00,49.0,43.0,30.19,ESE,103,0.0,0.0,80,0.00,,,0.00,,2013-05-26 09:01:00,
2013-05-26 05:11:00,49.0,43.0,30.19,ESE,103,0.0,0.0,80,0.00,,,0.00,,2013-05-26 09:11:00,
2013-05-26 05:12:00,49.0,43.0,30.19,ESE,103,0.0,0.0,79,0.00,,,0.00,,2013-05-26 09:12:00,
2013-05-26 05:22:00,49.0,43.0,30.19,ESE,103,0.0,0.0,80,0.00,,,0.00,,2013-05-26 09:22:00,
2013-05-26 05:33:00,49.0,43.0,30.19,ESE,103,0.0,0.0,79,0.00,,,0.00,,2013-05-26 09:33:00,
2013-05-26 05:42:00,49.0,43.0,30.19,ESE,103,0.0,0.0,79,0.00,,,0.00,,2013-05-26 09:42:00,
2013-05-26 05:53:00,49.0,43.0,30.19,ESE,103,0.0,0.0,79,0.00,,,0.00,,2013-05-26 09:53:00,
2013-05-26 06:03:00,49.0,43.0,30.19,ESE,103,0.0,0.0,79,0.00,,,0.00,,2013-05-26 10:03:00,
2013-05-26 06:33:00,48.0,43.0,30.21,ESE,103,0.0,0.0,84,0.00,,,0.00,,2013-05-26 10:33:00,
2013-05-26 06:42:00,48.0,43.0,30.21,ESE,103,0.0,0.0,84,0.00,,,0.00,,2013-05-26 10:42:00,
2013-05-26 06:52:00,48.0,43.0,30.21,ESE,103,0.0,0.0,84,0.00,,,0.00,,2013-05-26 10:52:00,
2013-05-26 07:03:00,48.0,45.0,30.23,ESE,103,0.0,0.0,88,0.00,,,0.00,,2013-05-26 11:03:00,
2013-05-26 07:11:00,48.0,45.0,30.23,ESE,103,0.0,0.0,88,0.00,,,0.00,,2013-05-26 11:11:00,
2013-05-26 07:12:00,48.0,45.0,30.25,NE,48,0.0,0.0,88,0.00,,,0.00,,2013-05-26 11:12:00,
2013-05-26 07:22:00,48.0,45.0,30.23,ESE,103,0.0,0.0,88,0.00,,,0.00,,2013-05-26 11:22:00,
2013-05-26 07:32:00,48.0,45.0,30.25,NE,48,0.0,0.0,88,0.00,,,0.00,,2013-05-26 11:32:00,
2013-05-26 07:42:00,48.0,45.0,30.25,NE,48,0.0,0.0,88,0.00,,,0.00,,2013-05-26 11:42:00,
2013-05-26 07:52:00,48.0,45.0,30.25,NE,48,0.0,0.0,88,0.00,,,0.00,,2013-05-26 11:52:00,
2013-05-26 08:02:00,48.0,45.0,30.25,NE,48,0.0,0.0,88,0.00,,,0.00,,2013-05-26 12:02:00,
2013-05-26 08:32:00,49.0,46.0,30.26,NE,48,0.0,0.0,89,0.00,,,0.00,,2013-05-26 12:32:00,
2013-05-26 08:42:00,49.0,46.0,30.26,NE,48,0.0,0.0,89,0.00,,,0.00,,2013-05-26 12:42:00,
2013-05-26 08:52:00,49.0,46.0,30.26,NE,48,0.0,0.0,89,0.00,,,0.00,,2013-05-26 12:52:00,
2013-05-26 09:02:00,49.0,48.0,30.26,NE,48,0.0,0.0,95,0.01,,,0.01,,2013-05-26 13:02:00,
2013-05-26 09:11:00,49.0,48.0,30.26,NE,48,0.0,0.0,95,0.01,,,0.01,,2013-05-26 13:11:00,
2013-05-26 09:22:00,49.0,48.0,30.26,NE,48,0.0,0.0,95,0.01,,,0.01,,2013-05-26 13:22:00,
2013-05-26 09:32:00,50.0,49.0,30.27,NE,48,0.0,0.0,97,0.01,,,0.01,,2013-05-26 13:32:00,
2013-05-26 09:42:00,50.0,49.0,30.27,NE,48,0.0,0.0,97,0.01,,,0.01,,2013-05-26 13:42:00,
2013-05-26 09:52:00,50.0,49.0,30.27,NE,48,0.0,0.0,97,0.01,,,0.01,,2013-05-26 13:52:00,
2013-05-26 10:02:00,51.0,50.0,30.26,ENE,59,0.0,0.0,95,0.00,,,0.01,,2013-05-26 14:02:00,
2013-05-26 10:11:00,51.0,50.0,30.26,ENE,59,0.0,0.0,95,0.00,,,0.01,,2013-05-26 14:11:00,
2013-05-26 10:22:00,51.0,50.0,30.26,ENE,59,0.0,0.0,95,0.00,,,0.01,,2013-05-26 14:22:00,
2013-05-26 10:32:00,55.0,51.0,30.26,SSE,168,0.0,1.0,85,0.00,,,0.01,,2013-05-26 14:32:00,
2013-05-26 10:42:00,55.0,51.0,30.26,SSE,168,0.0,1.0,85,0.00,,,0.01,,2013-05-26 14:42:00,
2013-05-26 10:52:00,55.0,51.0,30.26,SSE,168,0.0,1.0,85,0.00,,,0.01,,2013-05-26 14:52:00,
2013-05-26 11:02:00,55.0,51.0,30.26,SSE,168,0.0,0.0,86,0.00,,,0.01,,2013-05-26 15:02:00,
2013-05-26 11:12:00,55.0,51.0,30.26,SSE,168,0.0,0.0,86,0.00,,,0.01,,2013-05-26 15:12:00,
2013-05-26 11:22:00,55.0,51.0,30.26,SSE,168,0.0,0.0,86,0.00,,,0.01,,2013-05-26 15:22:00,
2013-05-26 11:33:00,56.0,52.0,30.26,SSE,168,0.0,0.0,86,0.00,,,0.01,,2013-05-26 15:33:00,
2013-05-26 11:43:00,56.0,52.0,30.26,SSE,168,0.0,0.0,86,0.00,,,0.01,,2013-05-26 15:43:00,
2013-05-26 11:53:00,56.0,52.0,30.26,SSE,168,0.0,0.0,86,0.00,,,0.01,,2013-05-26 15:53:00,
2013-05-26 12:03:00,56.0,52.0,30.26,SSE,168,0.0,0.0,86,0.00,,,0.01,,2013-05-26 16:03:00,
2013-05-26 12:33:00,60.0,50.0,30.26,South,172,0.0,0.0,70,0.00,,,0.01,,2013-05-26 16:33:00,
2013-05-26 12:42:00,60.0,50.0,30.26,South,172,0.0,0.0,70,0.00,,,0.01,,2013-05-26 16:42:00,
2013-05-26 12:53:00,60.0,50.0,30.26,South,172,0.0,0.0,70,0.00,,,0.01,,2013-05-26 16:53:00,
2013-05-26 13:02:00,61.0,51.0,30.25,South,172,0.0,0.0,69,2.92,,,2.92,,2013-05-26 17:02:00,
2013-05-26 13:11:00,61.0,51.0,30.25,South,172,0.0,0.0,69,2.92,,,2.92,,2013-05-26 17:11:00,
2013-05-26 13:23:00,61.0,51.0,30.25,South,172,0.0,0.0,69,2.92,,,2.92,,2013-05-26 17:23:00,
2013-05-26 13:32:00,65.0,50.0,30.23,ESE,120,0.0,1.0,59,2.92,,,2.92,,2013-05-26 17:32:00,
2013-05-26 13:42:00,65.0,50.0,30.23,ESE,120,0.0,1.0,59,2.92,,,2.92,,2013-05-26 17:42:00,
2013-05-26 13:52:00,65.0,50.0,30.23,ESE,120,0.0,1.0,59,2.92,,,2.92,,2013-05-26 17:52:00,
2013-05-26 14:32:00,69.0,-99.9,30.23,ESE,120,0.0,0.0,-999,0.00,,,2.92,,2013-05-26 18:32:00,
2013-05-26 14:42:00,69.0,-99.9,30.23,ESE,120,0.0,0.0,-999,0.00,,,2.92,,2013-05-26 18:42:00,
2013-05-26 14:52:00,69.0,-99.9,30.23,ESE,120,0.0,0.0,-999,0.00,,,2.92,,2013-05-26 18:52:00,
2013-05-26 15:01:00,70.0,52.0,30.20,ESE,123,0.0,2.0,53,0.00,,,2.92,,2013-05-26 19:01:00,
2013-05-26 15:11:00,70.0,52.0,30.20,ESE,123,0.0,2.0,53,0.00,,,2.92,,2013-05-26 19:11:00,
2013-05-26 15:22:00,70.0,52.0,30.20,ESE,123,0.0,2.0,53,0.00,,,2.92,,2013-05-26 19:22:00,
2013-05-26 15:32:00,74.0,52.0,30.19,NW,311,1.0,2.0,46,0.00,,,2.92,,2013-05-26 19:32:00,
2013-05-26 15:42:00,74.0,52.0,30.19,NW,311,1.0,2.0,46,0.00,,,2.92,,2013-05-26 19:42:00,
2013-05-26 15:52:00,74.0,52.0,30.19,NW,311,1.0,2.0,46,0.00,,,2.92,,2013-05-26 19:52:00,
2013-05-26 16:02:00,73.0,50.0,30.18,NNW,342,0.0,3.0,45,0.00,,,2.92,,2013-05-26 20:02:00,
2013-05-26 16:11:00,73.0,50.0,30.18,NNW,342,0.0,3.0,45,0.00,,,2.92,,2013-05-26 20:11:00,
2013-05-26 16:22:00,73.0,50.0,30.18,NNW,342,0.0,3.0,45,0.00,,,2.92,,2013-05-26 20:22:00,
2013-05-26 16:32:00,72.0,52.0,30.17,NW,318,0.0,2.0,49,0.00,,,2.92,,2013-05-26 20:32:00,
2013-05-26 16:42:00,72.0,52.0,30.17,NW,318,0.0,2.0,49,0.00,,,2.92,,2013-05-26 20:42:00,
2013-05-26 16:52:00,72.0,52.0,30.17,NW,318,0.0,2.0,49,0.00,,,2.92,,2013-05-26 20:52:00,
2013-05-26 17:02:00,72.0,49.0,30.17,NW,326,0.0,3.0,45,0.00,,,2.92,,2013-05-26 21:02:00,
2013-05-26 17:11:00,72.0,49.0,30.17,NW,326,0.0,3.0,45,0.00,,,2.92,,2013-05-26 21:11:00,
2013-05-26 17:22:00,72.0,49.0,30.17,NW,326,0.0,3.0,45,0.00,,,2.92,,2013-05-26 21:22:00,
2013-05-26 17:33:00,71.0,49.0,30.17,NNW,330,0.0,3.0,45,0.00,,,2.92,,2013-05-26 21:33:00,
2013-05-26 17:43:00,71.0,49.0,30.17,NNW,330,0.0,3.0,45,0.00,,,2.92,,2013-05-26 21:43:00,
2013-05-26 17:53:00,71.0,49.0,30.17,NNW,330,0.0,3.0,45,0.00,,,2.92,,2013-05-26 21:53:00,
2013-05-26 18:03:00,70.0,50.0,30.18,NNW,330,0.0,1.0,50,0.00,,,2.92,,2013-05-26 22:03:00,
2013-05-26 18:12:00,70.0,50.0,30.18,NNW,330,0.0,1.0,50,0.00,,,2.92,,2013-05-26 22:12:00,
2013-05-26 18:23:00,70.0,50.0,30.18,NNW,330,0.0,1.0,50,0.00,,,2.92,,2013-05-26 22:23:00,
2013-05-26 18:33:00,69.0,51.0,30.15,NNW,330,0.0,1.0,53,0.00,,,2.92,,2013-05-26 22:33:00,
2013-05-26 18:42:00,69.0,51.0,30.15,NNW,330,0.0,1.0,53,0.00,,,2.92,,2013-05-26 22:42:00,
2013-05-26 18:53:00,69.0,51.0,30.15,NNW,330,0.0,1.0,53,0.00,,,2.92,,2013-05-26 22:53:00,
2013-05-26 19:02:00,68.0,52.0,30.15,NW,311,0.0,2.0,56,0.00,,,2.92,,2013-05-26 23:02:00,
2013-05-26 19:12:00,68.0,52.0,30.15,NW,311,0.0,2.0,56,0.00,,,2.92,,2013-05-26 23:12:00,
2013-05-26 19:22:00,68.0,52.0,30.15,NW,311,0.0,2.0,56,0.00,,,2.92,,2013-05-26 23:22:00,
2013-05-26 19:32:00,67.0,52.0,30.16,NW,311,0.0,0.0,58,0.00,,,2.92,,2013-05-26 23:32:00,
2013-05-26 19:43:00,67.0,52.0,30.16,NW,311,0.0,0.0,58,0.00,,,2.92,,2013-05-26 23:43:00,
2013-05-26 19:52:00,67.0,52.0,30.16,NW,311,0.0,0.0,58,0.00,,,2.92,,2013-05-26 23:52:00,
2013-05-26 20:02:00,66.0,52.0,30.17,NW,311,0.0,0.0,61,0.00,,,2.92,,2013-05-27 00:02:00,
2013-05-26 20:11:00,66.0,52.0,30.17,NW,311,0.0,0.0,61,0.00,,,2.92,,2013-05-27 00:11:00,
2013-05-26 20:22:00,66.0,52.0,30.17,NW,311,0.0,0.0,61,0.00,,,2.92,,2013-05-27 00:22:00,
2013-05-26 20:32:00,65.0,53.0,30.17,NW,311,0.0,0.0,66,0.00,,,2.92,,2013-05-27 00:32:00,
2013-05-26 20:42:00,65.0,53.0,30.17,NW,311,0.0,0.0,66,0.00,,,2.92,,2013-05-27 00:42:00,
2013-05-26 20:52:00,65.0,53.0,30.17,NW,311,0.0,0.0,66,0.00,,,2.92,,2013-05-27 00:52:00,
2013-05-26 21:01:00,63.0,52.0,30.18,NW,311,0.0,1.0,67,0.00,,,2.92,,2013-05-27 01:01:00,
2013-05-26 21:11:00,63.0,52.0,30.18,NW,311,0.0,1.0,67,0.00,,,2.92,,2013-05-27 01:11:00,
2013-05-26 21:22:00,63.0,52.0,30.18,NW,311,0.0,1.0,67,0.00,,,2.92,,2013-05-27 01:22:00,
2013-05-26 21:32:00,62.0,50.0,30.18,NW,311,0.0,0.0,64,0.00,,,2.92,,2013-05-27 01:32:00,
2013-05-26 21:42:00,62.0,50.0,30.18,NW,311,0.0,0.0,64,0.00,,,2.92,,2013-05-27 01:42:00,
2013-05-26 21:52:00,62.0,50.0,30.18,NW,311,0.0,0.0,64,0.00,,,2.92,,2013-05-27 01:52:00,
2013-05-26 22:02:00,61.0,49.0,30.20,NW,311,0.0,0.0,65,0.00,,,2.92,,2013-05-27 02:02:00,
2013-05-26 22:11:00,61.0,49.0,30.20,NW,311,0.0,0.0,65,0.00,,,2.92,,2013-05-27 02:11:00,
2013-05-26 22:22:00,61.0,49.0,30.20,NW,311,0.0,0.0,65,0.00,,,2.92,,2013-05-27 02:22:00,
2013-05-26 22:32:00,61.0,51.0,30.19,NW,311,0.0,0.0,70,0.00,,,2.92,,2013-05-27 02:32:00,
2013-05-26 22:42:00,61.0,51.0,30.19,NW,311,0.0,0.0,70,0.00,,,2.92,,2013-05-27 02:42:00,
2013-05-26 22:52:00,61.0,51.0,30.19,NW,311,0.0,0.0,70,0.00,,,2.92,,2013-05-27 02:52:00,
2013-05-26 23:02:00,60.0,50.0,30.21,NW,311,0.0,0.0,69,0.00,,,2.92,,2013-05-27 03:02:00,
2013-05-26 23:11:00,60.0,50.0,30.21,NW,311,0.0,0.0,69,0.00,,,2.92,,2013-05-27 03:11:00,
2013-05-26 23:21:00,60.0,50.0,30.21,NW,311,0.0,0.0,69,0.00,,,2.92,,2013-05-27 03:21:00,
2013-05-26 23:33:00,59.0,51.0,30.23,NW,311,0.0,0.0,74,0.00,,,2.92,,2013-05-27 03:33:00,
2013-05-26 23:43:00,59.0,51.0,30.23,NW,311,0.0,0.0,74,0.00,,,2.92,,2013-05-27 03:43:00,
2013-05-26 23:53:00,59.0,51.0,30.23,NW,311,0.0,0.0,74,0.00,,,2.92,,2013-05-27 03:53:00,